Zurück zum Katalog

RADIO 3

AktivAmateurfunkPO
NORAD 12997·PAYLOAD·🇷🇺 Russia

Gestartet Dec 17, 1981 von Plesetsk Cosmodrome

Loading…

Nächste Überflüge (nächste 24 Stunden)

TLE

AktuellSource: Space-Track

Epoche: Sep 14, 2026, 08:06 UTC

1 12997U 81120A   26257.33784646 -.00000005  00000-0 -15417-3 0  9991
2 12997  82.9597 214.7844 0059820  78.6323  75.1957 12.15873590985538

Verfolge RADIO 3 in Echtzeit mit AllMySat

Download on the App Store